Du Bois, PA

12:38 PM EDT on March 25, 2017 (GMT -0400)
Du Bois-Jefferson County

Weather History for KDUJ - July, 2013

Change the Weather History Date:

Monday, July 8, 2013

  Actual Average Record
Temperature  
Mean Temperature 74 °F 68 °F  
Max Temperature 81 °F 79 °F 98 °F (1988)
Min Temperature 66 °F 58 °F 47 °F (1984)
Degree Days  
Heating Degree Days 0 1  
Month to date heating degree days 0 8  
Since 1 June heating degree days 38 93  
Since 1 July heating degree days 0 8  
Cooling Degree Days 9 4  
Month to date cooling degree days 74 32  
Year to date cooling degree days 225 126  
Since 1 June cooling degree days 166 103  
Growing Degree Days 23 (Base 50)    
Moisture  
Dew Point 65 °F    
Average Humidity 76    
Maximum Humidity 93    
Minimum Humidity 58    
Precipitation  
Precipitation T in 0.14 in 0.89 in (1991)
Month to date precipitation 1.66 1.13  
Sea Level Pressure  
Sea Level Pressure 30.10 in    
Wind  
Wind Speed 7 mph (WSW)    
Max Wind Speed 15 mph    
Max Gust Speed 18 mph    
Visibility 7 miles    
Events Rain    
T = Trace of Precipitation, MM = Missing Value Source: NWS Daily Summary

Daily Weather History Graph

Daily Weather History Graph

Search for Another Location

Airport or City:

Trip Planner

Search our weather history database for the weather conditions in past years. The results will help you decide how hot, cold, wet, or windy it might be!

Date:

Astronomy

Jul. 08, 2013 Rise Set
Actual Time 5:50 AM EDT 8:50 PM EDT
Civil Twilight 5:17 AM EDT 9:23 PM EDT
Nautical Twilight 4:35 AM EDT 10:05 PM EDT
Astronomical Twilight 3:46 AM EDT 10:54 PM EDT
Moon 6:19 AM EDT (7/8) 8:50 PM EDT (7/8)
Length of Visible Light 16h 05m
Length of Day
14h 59m
New Moon, 0% of the Moon is Illuminated
Jul 8
New Moon
Jul 15
First Quarter
Jul 22
Full
Jul 29
Last Quarter
Aug 6
New

Hourly Weather History & Observations

Time (EDT) Temp. Heat Index Dew Point Humidity Pressure Visibility Wind Dir Wind Speed Gust Speed Precip Events Conditions
12:56 AM 68.0 °F - 64.9 °F 90% 30.06 in 5.0 mi WSW 5.8 mph - N/A   Scattered Clouds
1:56 AM 68.0 °F - 64.9 °F 90% 30.06 in 6.0 mi WSW 8.1 mph - N/A   Mostly Cloudy
2:56 AM 66.0 °F - 64.0 °F 93% 30.06 in 4.0 mi WSW 6.9 mph - N/A   Partly Cloudy
3:06 AM 66.2 °F - 64.4 °F 94% 30.10 in 4.0 mi WSW 6.9 mph - N/A   Scattered Clouds
3:25 AM 66.2 °F - 64.4 °F 94% 30.09 in 4.0 mi SW 5.8 mph - N/A   Mostly Cloudy
3:56 AM 68.0 °F - 64.9 °F 90% 30.06 in 4.0 mi WSW 8.1 mph - N/A   Overcast
4:52 AM 66.2 °F - 64.4 °F 94% 30.10 in 4.0 mi SW 5.8 mph - N/A   Overcast
4:56 AM 66.9 °F - 64.9 °F 93% 30.06 in 4.0 mi SW 5.8 mph - N/A   Overcast
5:44 AM 66.2 °F - 64.4 °F 94% 30.11 in 3.0 mi WSW 8.1 mph - N/A   Overcast
5:56 AM 66.9 °F - 64.0 °F 90% 30.08 in 3.0 mi West 8.1 mph - N/A   Mostly Cloudy
6:01 AM 66.2 °F - 64.4 °F 94% 30.11 in 2.5 mi WSW 9.2 mph - N/A   Overcast
6:39 AM 66.2 °F - 64.4 °F 94% 30.12 in 3.0 mi WSW 5.8 mph - N/A   Overcast
6:56 AM 66.9 °F - 64.0 °F 90% 30.09 in 3.0 mi SW 5.8 mph - N/A   Overcast
7:09 AM 68.0 °F - 64.4 °F 88% 30.12 in 4.0 mi WSW 3.5 mph - N/A   Overcast
7:24 AM 68.0 °F - 64.4 °F 88% 30.12 in 4.0 mi WSW 5.8 mph - N/A   Overcast
7:56 AM 68.0 °F - 64.0 °F 87% 30.09 in 5.0 mi WSW 9.2 mph - N/A   Overcast
8:18 AM 68.0 °F - 64.4 °F 88% 30.13 in 5.0 mi WSW 6.9 mph - N/A   Overcast
8:54 AM 69.8 °F - 64.4 °F 83% 30.13 in 7.0 mi WSW 9.2 mph - N/A   Overcast
8:56 AM 69.1 °F - 64.0 °F 84% 30.10 in 7.0 mi West 10.4 mph - N/A   Overcast
9:28 AM 71.6 °F - 62.6 °F 73% 30.14 in 10.0 mi West 9.2 mph - N/A   Mostly Cloudy
9:52 AM 71.6 °F - 64.4 °F 78% 30.15 in 9.0 mi WSW 6.9 mph - N/A   Overcast
9:56 AM 70.0 °F - 64.0 °F 81% 30.12 in 9.0 mi WSW 8.1 mph - N/A   Overcast
10:26 AM 73.4 °F - 64.4 °F 73% 30.14 in 10.0 mi WSW 6.9 mph - N/A   Mostly Cloudy
10:30 AM 71.6 °F - 64.4 °F 78% 30.14 in 10.0 mi WSW 8.1 mph - N/A   Mostly Cloudy
10:42 AM 71.6 °F - 64.4 °F 78% 30.14 in 10.0 mi WSW 10.4 mph - N/A   Mostly Cloudy
10:56 AM 73.9 °F - 64.9 °F 73% 30.11 in 10.0 mi WSW 11.5 mph 17.3 mph N/A   Mostly Cloudy
11:32 AM 73.4 °F - 64.4 °F 73% 30.15 in 10.0 mi West 11.5 mph - N/A   Mostly Cloudy
11:56 AM 75.9 °F - 64.9 °F 69% 30.11 in 10.0 mi WSW 10.4 mph - N/A   Mostly Cloudy
12:10 PM 73.4 °F - 64.4 °F 73% 30.15 in 10.0 mi WSW 10.4 mph - N/A   Mostly Cloudy
12:23 PM 75.2 °F - 64.4 °F 69% 30.15 in 10.0 mi West 12.7 mph - N/A   Mostly Cloudy
12:56 PM 72.0 °F - 64.9 °F 78% 30.11 in 8.0 mi West 6.9 mph - 0.00 in Rain Light Rain
1:51 PM 77.0 °F - 64.4 °F 65% 30.12 in 10.0 mi SW 9.2 mph - 0.00 in   Mostly Cloudy
1:56 PM 77.0 °F - 64.9 °F 66% 30.08 in 10.0 mi WSW 9.2 mph - 0.00 in   Mostly Cloudy
2:17 PM 78.8 °F - 66.2 °F 65% 30.12 in 10.0 mi West 8.1 mph - N/A   Mostly Cloudy
2:56 PM 79.0 °F - 64.9 °F 62% 30.07 in 10.0 mi West 8.1 mph - N/A   Overcast
3:56 PM 80.1 °F 82.1 °F 66.0 °F 62% 30.06 in 10.0 mi West 11.5 mph - N/A   Scattered Clouds
4:56 PM 80.1 °F 81.9 °F 64.9 °F 60% 30.05 in 10.0 mi WSW 10.4 mph 16.1 mph N/A   Partly Cloudy
5:56 PM 78.1 °F - 64.9 °F 64% 30.06 in 10.0 mi WSW 6.9 mph - N/A   Partly Cloudy
6:56 PM 78.1 °F - 64.9 °F 64% 30.05 in 10.0 mi WSW 4.6 mph - N/A   Clear
7:56 PM 73.9 °F - 66.9 °F 79% 30.07 in 10.0 mi WSW 3.5 mph - N/A   Clear
8:56 PM 73.0 °F - 64.9 °F 76% 30.08 in 10.0 mi Calm Calm - N/A   Clear
9:56 PM 72.0 °F - 64.9 °F 78% 30.09 in 9.0 mi Calm Calm - N/A   Clear
10:56 PM 71.1 °F - 64.0 °F 78% 30.09 in 9.0 mi SSW 3.5 mph - N/A   Mostly Cloudy
11:56 PM 72.0 °F - 64.9 °F 78% 30.08 in 9.0 mi Calm Calm - N/A   Partly Cloudy